Regional Weather Roundup
Issued by NWS

Home | Current Version | Previous Version | Text Only | Print | Product List | Glossary Off
Versions: 1 2 3 4 5 6 7 8 9 10 11 12 13 14 15 16 17 18 19 20 21 22 23 24 25 26 27 28 29 30 31 32 33 34 35 36 37 38 39 40 41 42 43 44 45 46 47 48 49 50

000
ASUS45 KPSR 121210
RWRAZ

ARIZONA HOURLY REGIONAL WEATHER ROUNDUP
NATIONAL WEATHER SERVICE PHOENIX AZ
500 AM MST FRI FEB 12 2016

NOTE: FAIR INDICATES FEW OR NO CLOUDS BELOW 12,000 FEET WITH NO
SIGNIFICANT WEATHER AND/OR OBSTRUCTIONS TO VISIBILITY.

AZZ001>003-036-121300-
NORTHWEST ARIZONA

CITY           SKY/WX    TMP DP  RH WIND       PRES   REMARKS
BULLHEAD CITY  CLEAR     54  30  40 NE3       30.17S
KINGMAN        CLEAR     34  24  67 CALM      30.24F
6HR MIN TEMP:  34; 6HR MAX TEMP:  43;

$$

AZZ004>008-015-016-018-121300-
NORTH CENTRAL ARIZONA

CITY           SKY/WX    TMP DP  RH WIND       PRES   REMARKS
GRAND CANYON   PTCLDY    22  17  81 CALM      30.40S
6HR MIN TEMP:  22; 6HR MAX TEMP:  27;

WILLIAMS       CLEAR     28  18  64 S10       30.43S WCI  19
PRESCOTT       PTCLDY    34  20  56 SW5       30.32S WCI  30
6HR MIN TEMP:  33; 6HR MAX TEMP:  44;

FLAGSTAFF      PTCLDY    22  17  81 CALM      30.40S
6HR MIN TEMP:  21; 6HR MAX TEMP:  27;

PAYSON         CLEAR     46   9  21 CALM      30.31S
PAGE           CLEAR     34  29  82 CALM      30.37S HAZE
6HR MIN TEMP:  34; 6HR MAX TEMP:  44;

$$

AZZ009>014-017-121300-
NORTHEAST ARIZONA

CITY           SKY/WX    TMP DP  RH WIND       PRES   REMARKS
WINSLOW        PTCLDY    22  15  75 S3        30.39R
6HR MIN TEMP:  21; 6HR MAX TEMP:  36;

SAINT JOHNS    CLEAR     20  12  71 CALM      30.38S
6HR MIN TEMP:  20; 6HR MAX TEMP:  38;

WINDOW ROCK    CLEAR     25   0  33 S3        30.42S
6HR MIN TEMP:  24; 6HR MAX TEMP:  33;

SHOW LOW       PTCLDY    28  14  54 CALM      30.39S
$$

AZZ023-121300-
GREATER PHOENIX AREA

CITY           SKY/WX    TMP DP  RH WIND       PRES   REMARKS
PHOENIX        CLEAR     55  36  48 SE7       30.12S
6HR MIN TEMP:  55; 6HR MAX TEMP:  66;

BUCKEYE        CLEAR     48  32  53 CALM      30.15S
LUKE AFB       CLEAR     50  31  49 NE3       30.13R
6HR MIN TEMP:  49; 6HR MAX TEMP:  60;

DEER VALLEY    CLEAR     53  32  44 E3        30.13S
6HR MIN TEMP:  51; 6HR MAX TEMP:  63;

SCOTTSDALE     CLEAR     51  36  56 CALM      30.15R
6HR MIN TEMP:  51; 6HR MAX TEMP:  60;

MESA-GATEWAY   CLEAR     50  34  53 E7        30.15S
$$

AZZ027-028-121300-
SOUTHWEST MARICOPA COUNTY AND PINAL COUNTY

CITY           SKY/WX    TMP DP  RH WIND       PRES   REMARKS
CASA GRANDE    CLEAR     46  28  49 NE5       30.15S
6HR MIN TEMP:  45; 6HR MAX TEMP:  54;

GILA BEND      FAIR      49  29  46 SE7       30.11S
6HR MIN TEMP:  48; 6HR MAX TEMP:  59;

$$

AZZ503-504-507>509-121300-
SOUTHEAST ARIZONA

CITY           SKY/WX    TMP DP  RH WIND       PRES   REMARKS
TUCSON         CLEAR     49  23  36 SE10      30.20F
6HR MIN TEMP:  48; 6HR MAX TEMP:  57;

DAVIS-MONTHAN  CLEAR     48  21  34 SE9       30.18F
6HR MIN TEMP:  47; 6HR MAX TEMP:  53;

NOGALES        CLEAR     38  18  44 E3        30.23F
6HR MIN TEMP:  38; 6HR MAX TEMP:  49;

SIERRA VISTA   PTCLDY    49  15  26 SW7       30.28S
6HR MIN TEMP:  48; 6HR MAX TEMP:  52;

DOUGLAS        PTCLDY    35  12  38 E5        30.27S WCI  31
6HR MIN TEMP:  30; 6HR MAX TEMP:  43;

SAFFORD        CLEAR     37  20  50 E3        30.24R
6HR MIN TEMP:  36; 6HR MAX TEMP:  48;

$$

AZZ020-021-025-026-031-121300-
SOUTHWEST ARIZONA

CITY           SKY/WX    TMP DP  RH WIND       PRES   REMARKS
YUMA           CLEAR     57  28  33 NE5       30.09S
6HR MIN TEMP:  55; 6HR MAX TEMP:  62;

$$

CAZ031-033-041-043-047-048-061-121300-
SOUTHERN CALIFORNIA

CITY           SKY/WX    TMP DP  RH WIND       PRES   REMARKS
DOWNTOWN L.A.  CLEAR     57  38  48 CALM      30.07F
6HR MIN TEMP:  57; 6HR MAX TEMP:  63;

L.A. AIRPORT   PTCLDY    58  38  47 E3        30.08F
6HR MIN TEMP:  57; 6HR MAX TEMP:  65;

SAN DIEGO      CLEAR     58  37  45 CALM      30.09F
6HR MIN TEMP:  58; 6HR MAX TEMP:  66;

BURBANK        CLEAR     54  35  48 CALM      30.09F
6HR MIN TEMP:  53; 6HR MAX TEMP:  64;

ONTARIO        CLEAR     56  34  43 NE3       30.10F
6HR MIN TEMP:  56; 6HR MAX TEMP:  65;

RIVERSIDE      CLEAR     56  32  40 NE6       30.11F
6HR MIN TEMP:  55; 6HR MAX TEMP:  64;

PALM SPRINGS   CLEAR     58  26  29 NW8       30.11F
6HR MIN TEMP:  58; 6HR MAX TEMP:  64;

EL CENTRO NAS  CLEAR     54  23  30 W5        30.10S
6HR MIN TEMP:  50; 6HR MAX TEMP:  58;

IMPERIAL       CLEAR     50  29  44 SW3       30.08F
6HR MIN TEMP:  50; 6HR MAX TEMP:  59;

BLYTHE         CLEAR     50  24  36 W3        30.12F
6HR MIN TEMP:  49; 6HR MAX TEMP:  63;

NEEDLES        CLEAR     51  25  36 W5        30.16S
6HR MIN TEMP:  51; 6HR MAX TEMP:  63;

$$

NVZ020-UTZ003-121300-
SOUTHERN NEVADA-UTAH

CITY           SKY/WX    TMP DP  RH WIND       PRES   REMARKS
LAS VEGAS      PTCLDY    48  22  35 SW5       30.19S
6HR MIN TEMP:  48; 6HR MAX TEMP:  56;

SALT LAKE CITY CLOUDY    30  27  88 CALM      30.41S FOG
6HR MIN TEMP:  29; 6HR MAX TEMP:  30;

$$

NMZ009-TXZ055-121300-
NEW MEXICO-WEST TEXAS

CITY           SKY/WX    TMP DP  RH WIND       PRES   REMARKS
ALBUQUERQUE    CLOUDY    37  20  50 NW7       30.36S WCI  32
6HR MIN TEMP:  36; 6HR MAX TEMP:  50;

EL PASO        MOCLDY    39  18  42 N8        30.28R WCI  33
6HR MIN TEMP:  39; 6HR MAX TEMP:  50;

$$


........................KEY........................
SKY/WX - SKY CONDITION/WEATHER
TMP    - TEMPERATURE IN FAHRENHEIT
DP     - DEW POINT IN FAHRENHEIT
RH     - RELATIVE HUMIDITY IN PERCENT
WIND   - DIRECTION AND SPEED IN MILES PER HOUR (MPH)
VRB    - VARIABLE WIND DIRECTION
PRES   - MEAN SEA LEVEL PRESSURE IN INCHES OF MERCURY
         F - FALLING PRESSURE   R - RISING PRESSURE
         S - STEADY PRESSURE
VSB    - VISIBILITY IN MILES
HX     - HEAT INDEX IN FAHRENHEIT
WCI    - WIND CHILL INDEX IN FAHRENHEIT
TC     - TEMPERATURE IN CELSIUS WHICH IS ALSO KNOWN AS
         TEMPERATURE IN CENTIGRADE
AFB    - AIR FORCE BASE
         LUKE AFB IS LUKE AIR FORCE BASE
         DAVIS-MONTHAN IS DAVIS-MONTHAN AIR FORCE BASE
NAS    - NAVAL AIR STATION
         EL CENTRO NAS IS EL CENTRO NAVAL AIR STATION
N/A    - NOT AVAILABLE




USA.gov is the U.S. government's official web portal to all federal, state and local government web resources and services.